sat.trackr.live / text

‹ back to catalog

STARLINK-5120

NORAD 53982 · 2022-125U

PAYLOAD ACTIVE UNKNOWN

§ Identity

Operator
Country
US
Launch date
2022-10-05
Launch site
AFWTR
Launch vehicle
Mass (kg)
RCS (m²)

Purposes: comms

External: N2YO · Heavens-Above · Gunter

§ Orbital elements

Epoch: 2026-05-24T16:16:01.228800Z

Period
95.44 min
Inclination
53.2136°
Eccentricity
0.0001134
Mean motion
15.08836221 rev/d
Perigee alt
539.0 km
Apogee alt
540.5 km
Semi-major
6,917.9 km
B*
3.7759e-5
RAAN
233.0342°
Arg perigee
86.3248°
Mean anomaly
273.7874°
Rev number
20,092

§ Raw data

STARLINK-51201 53982U 22125U   26144.67779200  .00000313  00000+0  37759-4 0  99952 53982  53.2136 233.0342 0001134  86.3248 273.7874 15.08836221200923

JSON: /api/v1/satellites/53982 · /tle

For live sub-satellite position, see the globe view (requires WebGL).

§ Visibility from observer

Set your observer location to see the next 7 days of passes ≥ 10°. The values pass through the URL so the page stays shareable.

No JS? Fill the form by hand. The geolocation button needs JavaScript.